Weather History for Cedar Rapids, IA

Change the Weather History Date:

Sunday, November 10, 2013

  Actual Average Record
Temperature  
Mean Temperature 36 °F 40 °F  
Max Temperature 46 °F 50 °F 72 °F (2012)
Min Temperature 26 °F 31 °F 13 °F (1926)
Degree Days  
Heating Degree Days 29 25  
Month to date heating degree days 225 225  
Since 1 July heating degree days 752 835  
Cooling Degree Days 0 0  
Month to date cooling degree days 0 0  
Year to date cooling degree days 884 748  
Moisture  
Dew Point 28 °F    
Average Humidity 73    
Maximum Humidity 92    
Minimum Humidity 53    
Precipitation  
Precipitation 0.00 in 0.07 in 0.82 in (1974)
Month to date precipitation 0.73 0.72  
Year to date precipitation 35.28 31.80  
Sea Level Pressure  
Sea Level Pressure 30.31 in    
Wind  
Wind Speed 7 mph (WSW)    
Max Wind Speed 20 mph    
Max Gust Speed 24 mph    
Visibility 10 miles    
Events      
T = Trace of Precipitation, MM = Missing Value Source: NWS Daily Summary

Daily Weather History Graph

Daily Weather History Graph

Search for Another Location

Airport:

Trip Planner

Search our weather history database for the weather conditions in past years. The results will help you decide how hot, cold, wet, or windy it might be!

Date:

Astronomy

Nov. 10, 2013 Rise Set
Actual Time 6:50 AM CST 4:50 PM CST
Civil Twilight 6:21 AM CST 5:20 PM CST
Nautical Twilight 5:47 AM CST 5:53 PM CST
Astronomical Twilight 5:14 AM CST 6:26 PM CST
Moon 1:02 PM CST (11/10) No Moon Set
Length of Visible Light 10h 59m
Length of Day
9h 59m
First Quarter, 56% of the Moon is Illuminated
Nov 10
First Quarter
Nov 17
Full
Nov 25
Last Quarter
Dec 2
New
Dec 9
First Quarter

Hourly Weather History & Observations

Time (CST) Temp. Windchill Dew Point Humidity Pressure Visibility Wind Dir Wind Speed Gust Speed Precip Events Conditions
12:52 AM 35.1 °F 25.2 °F 28.0 °F 76% 30.27 in 10.0 mi NW 16.1 mph - N/A   Clear
1:52 AM 33.1 °F 23.4 °F 27.0 °F 78% 30.28 in 10.0 mi WNW 13.8 mph - N/A   Clear
2:52 AM 30.9 °F 22.2 °F 26.1 °F 82% 30.30 in 10.0 mi WNW 10.4 mph - N/A   Clear
3:52 AM 30.0 °F 21.7 °F 25.0 °F 82% 30.32 in 10.0 mi WNW 9.2 mph - N/A   Clear
4:52 AM 27.0 °F 19.5 °F 24.1 °F 89% 30.34 in 10.0 mi WNW 6.9 mph - N/A   Clear
5:52 AM 27.0 °F 19.5 °F 23.0 °F 85% 30.36 in 10.0 mi WNW 6.9 mph - N/A   Clear
6:52 AM 26.1 °F 18.4 °F 23.0 °F 88% 30.39 in 10.0 mi WNW 6.9 mph - N/A   Clear
7:52 AM 28.9 °F 22.8 °F 25.0 °F 85% 30.40 in 10.0 mi NW 5.8 mph - N/A   Clear
8:52 AM 34.0 °F 28.0 °F 27.0 °F 75% 30.42 in 10.0 mi NW 6.9 mph - N/A   Clear
9:52 AM 37.9 °F 34.4 °F 28.0 °F 68% 30.42 in 10.0 mi NW 4.6 mph - N/A   Clear
10:52 AM 39.9 °F 37.8 °F 28.9 °F 65% 30.41 in 10.0 mi West 3.5 mph - N/A   Clear
11:52 AM 43.0 °F 38.2 °F 30.0 °F 60% 30.38 in 10.0 mi WSW 8.1 mph - N/A   Clear
12:52 PM 44.1 °F 39.0 °F 28.0 °F 53% 30.35 in 9.0 mi SW 9.2 mph - N/A   Scattered Clouds
1:52 PM 45.0 °F 41.2 °F 28.0 °F 52% 30.33 in 8.0 mi SW 6.9 mph - N/A   Scattered Clouds
2:52 PM 45.0 °F 40.1 °F 28.0 °F 52% 30.32 in 10.0 mi SW 9.2 mph - N/A   Overcast
3:52 PM 44.1 °F 40.1 °F 28.9 °F 55% 30.31 in 10.0 mi SSW 6.9 mph - N/A   Overcast
4:52 PM 43.0 °F 40.3 °F 28.9 °F 58% 30.30 in 10.0 mi SSW 4.6 mph - N/A   Overcast
5:52 PM 41.0 °F - 28.9 °F 62% 30.29 in 10.0 mi Calm Calm - N/A   Mostly Cloudy
6:52 PM 39.0 °F 36.8 °F 28.9 °F 67% 30.27 in 10.0 mi South 3.5 mph - N/A   Mostly Cloudy
7:52 PM 39.0 °F 34.8 °F 28.9 °F 67% 30.25 in 10.0 mi South 5.8 mph - N/A   Overcast
8:52 PM 41.0 °F 36.4 °F 30.0 °F 65% 30.23 in 10.0 mi South 6.9 mph - N/A   Overcast
9:52 PM 42.1 °F 36.6 °F 30.0 °F 62% 30.21 in 10.0 mi South 9.2 mph - N/A   Overcast
10:52 PM 42.1 °F 37.7 °F 30.0 °F 62% 30.20 in 10.0 mi South 6.9 mph - N/A   Overcast
11:52 PM 43.0 °F 38.2 °F 30.9 °F 62% 30.18 in 10.0 mi SSW 8.1 mph - N/A   Overcast